Location: Poughquag
(41.6090°N, 73.6820°W)
Time: 12:48:07
(UTC-04:00)

Transit 2A - Pass Details

Date: 30 May 2020
Orbit: 592 x 967 km, 66.7° (Epoch: 06 July)

Event Time Altitude Azimuth Distance (km) Brightness Sun altitude
Rises 15:14:21 0° 240° (WSW) 3,036 9.7 54.4°
Reaches altitude 10° 15:16:49 10° 251° (WSW) 2,181 9.2 53.9°
Maximum altitude 15:21:12 30° 313° (NW) 1,336 8.0 53.2°
Drops below altitude 10° 15:26:02 10° 14° (NNE) 2,415 8.5 52.3°
Sets 15:28:55 0° 24° (NNE) 3,419 9.1 51.8°
